Time,TemperatureF,DewpointF,PressureIn,WindDirection,WindDirectionDegrees,WindSpeedMPH,WindSpeedGustMPH,Humidity,HourlyPrecipIn,Conditions,Clouds,dailyrainin,SoftwareType,DateUTC
2013-06-19 00:00:00,72.2,39.0,29.58,SW,215,25.0,26.0,30,0.00,,,0.00,Wunderground v.1.15,2013-06-19 07:00:00,
2013-06-19 00:06:00,72.1,38.9,29.58,SW,217,26.0,34.0,30,0.00,,,0.00,Wunderground v.1.15,2013-06-19 07:06:00,
2013-06-19 00:12:00,72.0,38.9,29.59,SSW,209,26.0,28.0,30,0.00,,,0.00,Wunderground v.1.15,2013-06-19 07:12:00,
2013-06-19 00:18:00,71.8,38.7,29.59,SSW,209,24.0,28.0,30,0.00,,,0.00,Wunderground v.1.15,2013-06-19 07:18:00,
2013-06-19 00:24:00,71.7,38.6,29.59,SW,225,22.0,27.0,30,0.00,,,0.00,Wunderground v.1.15,2013-06-19 07:24:00,
2013-06-19 00:30:00,71.7,38.6,29.59,SW,234,21.0,21.0,30,0.00,,,0.00,Wunderground v.1.15,2013-06-19 07:30:00,
2013-06-19 00:36:00,71.7,36.8,29.58,SW,226,18.0,24.0,28,0.00,,,0.00,Wunderground v.1.15,2013-06-19 07:36:00,
2013-06-19 00:42:00,71.7,38.6,29.58,SW,218,23.0,31.0,30,0.00,,,0.00,Wunderground v.1.15,2013-06-19 07:42:00,
2013-06-19 00:48:00,71.6,39.3,29.57,SW,222,29.0,36.0,31,0.00,,,0.00,Wunderground v.1.15,2013-06-19 07:48:00,
2013-06-19 00:54:00,71.4,39.2,29.57,SSW,198,28.0,29.0,31,0.00,,,0.00,Wunderground v.1.15,2013-06-19 07:54:00,
2013-06-19 01:00:00,71.6,37.6,29.58,SW,230,27.0,27.0,29,0.00,,,0.00,Wunderground v.1.15,2013-06-19 08:00:00,
2013-06-19 01:06:00,72.0,38.0,29.58,SSW,200,25.0,27.0,29,0.00,,,0.00,Wunderground v.1.15,2013-06-19 08:06:00,
2013-06-19 01:12:00,72.4,37.4,29.58,SW,230,27.0,27.0,28,0.00,,,0.00,Wunderground v.1.15,2013-06-19 08:12:00,
2013-06-19 01:18:00,72.2,38.2,29.58,SW,234,25.0,28.0,29,0.00,,,0.00,Wunderground v.1.15,2013-06-19 08:18:00,
2013-06-19 01:24:00,72.0,36.2,29.58,SW,219,21.0,24.0,27,0.00,,,0.00,Wunderground v.1.15,2013-06-19 08:24:00,
2013-06-19 01:30:00,71.7,38.6,29.58,SW,229,19.0,28.0,30,0.00,,,0.00,Wunderground v.1.15,2013-06-19 08:30:00,
2013-06-19 01:36:00,71.3,38.2,29.58,SW,230,22.0,28.0,30,0.00,,,0.00,Wunderground v.1.15,2013-06-19 08:36:00,
2013-06-19 01:42:00,71.2,38.2,29.58,SW,225,24.0,30.0,30,0.00,,,0.00,Wunderground v.1.15,2013-06-19 08:42:00,
2013-06-19 01:48:00,71.2,38.2,29.58,SW,221,26.0,30.0,30,0.00,,,0.00,Wunderground v.1.15,2013-06-19 08:48:00,
2013-06-19 01:54:00,70.9,38.7,29.58,SW,227,25.0,30.0,31,0.00,,,0.00,Wunderground v.1.15,2013-06-19 08:54:00,
2013-06-19 02:00:00,70.4,39.1,29.58,SSW,213,26.0,27.0,32,0.00,,,0.00,Wunderground v.1.15,2013-06-19 09:00:00,
2013-06-19 02:06:00,69.9,39.5,29.57,SW,219,26.0,28.0,33,0.00,,,0.00,Wunderground v.1.15,2013-06-19 09:06:00,
2013-06-19 02:12:00,69.7,39.3,29.57,SW,234,26.0,33.0,33,0.00,,,0.00,Wunderground v.1.15,2013-06-19 09:12:00,
2013-06-19 02:18:00,69.5,39.1,29.56,SSW,200,25.0,33.0,33,0.00,,,0.00,Wunderground v.1.15,2013-06-19 09:18:00,
2013-06-19 02:24:00,69.5,37.5,29.56,WSW,248,23.0,25.0,31,0.00,,,0.00,Wunderground v.1.15,2013-06-19 09:24:00,
2013-06-19 02:30:00,69.7,37.7,29.56,WSW,244,23.0,23.0,31,0.00,,,0.00,Wunderground v.1.15,2013-06-19 09:30:00,
2013-06-19 02:36:00,69.6,37.6,29.56,SW,220,23.0,25.0,31,0.00,,,0.00,Wunderground v.1.15,2013-06-19 09:36:00,
2013-06-19 02:42:00,69.3,37.3,29.55,WSW,246,22.0,37.0,31,0.00,,,0.00,Wunderground v.1.15,2013-06-19 09:42:00,
2013-06-19 02:48:00,69.3,36.5,29.56,WSW,237,24.0,37.0,30,0.00,,,0.00,Wunderground v.1.15,2013-06-19 09:48:00,
2013-06-19 02:54:00,69.4,36.6,29.56,WSW,238,24.0,25.0,30,0.00,,,0.00,Wunderground v.1.15,2013-06-19 09:54:00,
2013-06-19 03:00:00,69.4,36.6,29.55,WSW,240,24.0,24.0,30,0.00,,,0.00,Wunderground v.1.15,2013-06-19 10:00:00,
2013-06-19 03:06:00,69.3,35.7,29.56,WSW,252,25.0,26.0,29,0.00,,,0.00,Wunderground v.1.15,2013-06-19 10:06:00,
2013-06-19 03:12:00,69.2,36.4,29.57,WSW,238,24.0,24.0,30,0.00,,,0.00,Wunderground v.1.15,2013-06-19 10:12:00,
2013-06-19 03:18:00,68.9,36.2,29.58,SW,236,20.0,24.0,30,0.00,,,0.00,Wunderground v.1.15,2013-06-19 10:18:00,
2013-06-19 03:24:00,68.7,36.0,29.59,WSW,256,17.0,19.0,30,0.00,,,0.00,Wunderground v.1.15,2013-06-19 10:24:00,
2013-06-19 03:30:00,68.7,34.3,29.59,WSW,250,16.0,21.0,28,0.00,,,0.00,Wunderground v.1.15,2013-06-19 10:30:00,
2013-06-19 03:36:00,68.9,35.3,29.58,SW,231,16.0,24.0,29,0.00,,,0.00,Wunderground v.1.15,2013-06-19 10:36:00,
2013-06-19 03:42:00,69.0,35.4,29.59,WSW,256,18.0,22.0,29,0.00,,,0.00,Wunderground v.1.15,2013-06-19 10:42:00,
2013-06-19 03:48:00,68.6,35.1,29.59,WSW,242,17.0,22.0,29,0.00,,,0.00,Wunderground v.1.15,2013-06-19 10:48:00,
2013-06-19 03:54:00,68.3,35.6,29.60,SW,226,16.0,21.0,30,0.00,,,0.00,Wunderground v.1.15,2013-06-19 10:54:00,
2013-06-19 04:00:00,68.0,35.4,29.59,SW,227,14.0,14.0,30,0.00,,,0.00,Wunderground v.1.15,2013-06-19 11:00:00,
2013-06-19 04:06:00,67.9,35.3,29.59,West,259,14.0,16.0,30,0.00,,,0.00,Wunderground v.1.15,2013-06-19 11:06:00,
2013-06-19 04:12:00,67.9,34.4,29.59,NW,309,14.0,16.0,29,0.00,,,0.00,Wunderground v.1.15,2013-06-19 11:12:00,
2013-06-19 04:18:00,67.9,34.4,29.59,West,268,16.0,25.0,29,0.00,,,0.00,Wunderground v.1.15,2013-06-19 11:18:00,
2013-06-19 04:24:00,67.9,34.4,29.59,WSW,256,19.0,23.0,29,0.00,,,0.00,Wunderground v.1.15,2013-06-19 11:24:00,
2013-06-19 04:30:00,67.9,34.4,29.59,West,278,18.0,23.0,29,0.00,,,0.00,Wunderground v.1.15,2013-06-19 11:30:00,
2013-06-19 04:36:00,67.8,34.4,29.59,WSW,246,19.0,26.0,29,0.00,,,0.00,Wunderground v.1.15,2013-06-19 11:36:00,
2013-06-19 04:42:00,67.7,34.3,29.59,WSW,247,20.0,20.0,29,0.00,,,0.00,Wunderground v.1.15,2013-06-19 11:42:00,
2013-06-19 04:48:00,67.7,34.3,29.59,WSW,244,18.0,21.0,29,0.00,,,0.00,Wunderground v.1.15,2013-06-19 11:48:00,
2013-06-19 04:54:00,67.6,35.0,29.60,West,263,17.0,27.0,30,0.00,,,0.00,Wunderground v.1.15,2013-06-19 11:54:00,
2013-06-19 05:00:00,67.5,35.0,29.60,WSW,240,18.0,18.0,30,0.00,,,0.00,Wunderground v.1.15,2013-06-19 12:00:00,
2013-06-19 05:06:00,67.4,34.9,29.60,SW,227,18.0,30.0,30,0.00,,,0.00,Wunderground v.1.15,2013-06-19 12:06:00,
2013-06-19 05:12:00,67.4,34.9,29.61,SW,223,20.0,20.0,30,0.00,,,0.00,Wunderground v.1.15,2013-06-19 12:12:00,
2013-06-19 05:18:00,67.3,34.8,29.61,SW,227,18.0,22.0,30,0.00,,,0.00,Wunderground v.1.15,2013-06-19 12:18:00,
2013-06-19 05:24:00,67.2,34.7,29.62,SW,230,18.0,21.0,30,0.00,,,0.00,Wunderground v.1.15,2013-06-19 12:24:00,
2013-06-19 05:30:00,67.1,34.6,29.61,SW,216,18.0,18.0,30,0.00,,,0.00,Wunderground v.1.15,2013-06-19 12:30:00,
2013-06-19 05:36:00,66.8,35.2,29.61,SW,235,19.0,27.0,31,0.00,,,0.00,Wunderground v.1.15,2013-06-19 12:36:00,
2013-06-19 05:42:00,66.7,35.1,29.61,SW,235,21.0,22.0,31,0.00,,,0.00,Wunderground v.1.15,2013-06-19 12:42:00,
2013-06-19 05:48:00,66.6,35.0,29.61,SW,219,20.0,23.0,31,0.00,,,0.00,Wunderground v.1.15,2013-06-19 12:48:00,
2013-06-19 05:54:00,66.3,34.7,29.61,SW,218,18.0,19.0,31,0.00,,,0.00,Wunderground v.1.15,2013-06-19 12:54:00,
2013-06-19 06:00:00,66.2,35.4,29.62,SW,219,17.0,20.0,32,0.00,,,0.00,Wunderground v.1.15,2013-06-19 13:00:00,
2013-06-19 06:06:00,66.1,35.4,29.62,SSW,207,18.0,26.0,32,0.00,,,0.00,Wunderground v.1.15,2013-06-19 13:06:00,
2013-06-19 06:12:00,66.2,35.4,29.62,SSW,199,20.0,20.0,32,0.00,,,0.00,Wunderground v.1.15,2013-06-19 13:12:00,
2013-06-19 06:18:00,66.3,35.5,29.62,South,186,19.0,24.0,32,0.00,,,0.00,Wunderground v.1.15,2013-06-19 13:18:00,
2013-06-19 06:24:00,66.6,35.8,29.62,SW,223,19.0,23.0,32,0.00,,,0.00,Wunderground v.1.15,2013-06-19 13:24:00,
2013-06-19 06:30:00,66.8,35.2,29.62,SW,220,19.0,19.0,31,0.00,,,0.00,Wunderground v.1.15,2013-06-19 13:30:00,
2013-06-19 06:36:00,67.0,35.3,29.61,SSW,209,21.0,30.0,31,0.00,,,0.00,Wunderground v.1.15,2013-06-19 13:36:00,
2013-06-19 06:42:00,67.2,35.5,29.61,SSW,200,22.0,29.0,31,0.00,,,0.00,Wunderground v.1.15,2013-06-19 13:42:00,
2013-06-19 06:48:00,67.6,35.0,29.61,SSW,197,23.0,29.0,30,0.00,,,0.00,Wunderground v.1.15,2013-06-19 13:48:00,
2013-06-19 06:54:00,67.9,35.3,29.61,SW,230,23.0,24.0,30,0.00,,,0.00,Wunderground v.1.15,2013-06-19 13:54:00,
2013-06-19 07:00:00,68.0,35.4,29.61,SSW,211,22.0,23.0,30,0.00,,,0.00,Wunderground v.1.15,2013-06-19 14:00:00,
2013-06-19 07:06:00,67.8,36.0,29.61,SW,225,23.0,29.0,31,0.00,,,0.00,Wunderground v.1.15,2013-06-19 14:06:00,
2013-06-19 07:12:00,67.9,36.1,29.61,WSW,240,21.0,24.0,31,0.00,,,0.00,Wunderground v.1.15,2013-06-19 14:12:00,
2013-06-19 07:18:00,68.1,36.3,29.61,SW,232,22.0,24.0,31,0.00,,,0.00,Wunderground v.1.15,2013-06-19 14:18:00,
2013-06-19 07:24:00,68.7,36.0,29.62,SSW,205,22.0,26.0,30,0.00,,,0.00,Wunderground v.1.15,2013-06-19 14:24:00,
2013-06-19 07:30:00,69.4,33.9,29.63,SW,215,22.0,22.0,27,0.00,,,0.00,Wunderground v.1.15,2013-06-19 14:30:00,
2013-06-19 07:36:00,70.5,35.8,29.63,SW,234,18.0,22.0,28,0.00,,,0.00,Wunderground v.1.15,2013-06-19 14:36:00,
2013-06-19 07:42:00,70.0,36.3,29.64,SSW,212,20.0,24.0,29,0.00,,,0.00,Wunderground v.1.15,2013-06-19 14:42:00,
2013-06-19 07:48:00,70.0,35.4,29.64,SW,215,22.0,24.0,28,0.00,,,0.00,Wunderground v.1.15,2013-06-19 14:48:00,
2013-06-19 07:54:00,70.8,36.1,29.65,SSW,206,21.0,24.0,28,0.00,,,0.00,Wunderground v.1.15,2013-06-19 14:54:00,
2013-06-19 08:00:00,70.8,36.1,29.65,SW,215,20.0,20.0,28,0.00,,,0.00,Wunderground v.1.15,2013-06-19 15:00:00,
2013-06-19 08:06:00,71.1,35.4,29.64,SSW,195,19.0,23.0,27,0.00,,,0.00,Wunderground v.1.15,2013-06-19 15:06:00,
2013-06-19 08:12:00,71.7,35.9,29.64,South,173,20.0,21.0,27,0.00,,,0.00,Wunderground v.1.15,2013-06-19 15:12:00,
2013-06-19 08:18:00,72.6,34.7,29.64,South,186,20.0,21.0,25,0.00,,,0.00,Wunderground v.1.15,2013-06-19 15:18:00,
2013-06-19 08:24:00,73.7,35.7,29.63,SSW,208,20.0,30.0,25,0.00,,,0.00,Wunderground v.1.15,2013-06-19 15:24:00,
2013-06-19 08:30:00,74.3,35.2,29.64,SSW,195,21.0,21.0,24,0.00,,,0.00,Wunderground v.1.15,2013-06-19 15:30:00,
2013-06-19 08:36:00,74.6,35.4,29.65,SW,217,21.0,27.0,24,0.00,,,0.00,Wunderground v.1.15,2013-06-19 15:36:00,
2013-06-19 08:42:00,74.9,35.7,29.65,SSW,197,21.0,24.0,24,0.00,,,0.00,Wunderground v.1.15,2013-06-19 15:42:00,
2013-06-19 08:48:00,74.8,35.6,29.65,SW,217,22.0,26.0,24,0.00,,,0.00,Wunderground v.1.15,2013-06-19 15:48:00,
2013-06-19 08:54:00,75.7,35.3,29.65,South,188,21.0,23.0,23,0.00,,,0.00,Wunderground v.1.15,2013-06-19 15:54:00,
2013-06-19 09:00:00,76.2,35.7,29.65,SSW,204,20.0,20.0,23,0.00,,,0.00,Wunderground v.1.15,2013-06-19 16:00:00,
2013-06-19 09:06:00,76.4,34.7,29.65,South,190,22.0,27.0,22,0.00,,,0.00,Wunderground v.1.15,2013-06-19 16:06:00,
2013-06-19 09:12:00,77.7,33.4,29.65,South,190,21.0,21.0,20,0.00,,,0.00,Wunderground v.1.15,2013-06-19 16:12:00,
2013-06-19 09:18:00,78.8,33.0,29.65,South,188,17.0,21.0,19,0.00,,,0.00,Wunderground v.1.15,2013-06-19 16:18:00,
2013-06-19 09:24:00,80.0,34.0,29.65,South,188,14.0,17.0,19,0.00,,,0.00,Wunderground v.1.15,2013-06-19 16:24:00,
2013-06-19 09:30:00,80.2,31.4,29.65,SSW,206,12.0,12.0,17,0.00,,,0.00,Wunderground v.1.15,2013-06-19 16:30:00,
2013-06-19 09:36:00,81.1,32.1,29.65,SW,229,11.0,12.0,17,0.00,,,0.00,Wunderground v.1.15,2013-06-19 16:36:00,
2013-06-19 09:42:00,81.3,30.8,29.65,SSW,205,11.0,11.0,16,0.00,,,0.00,Wunderground v.1.15,2013-06-19 16:42:00,
2013-06-19 09:48:00,81.3,30.8,29.65,WSW,246,11.0,11.0,16,0.00,,,0.00,Wunderground v.1.15,2013-06-19 16:48:00,
2013-06-19 09:54:00,82.4,31.7,29.65,SSW,197,8.0,10.0,16,0.00,,,0.00,Wunderground v.1.15,2013-06-19 16:54:00,
2013-06-19 10:00:00,82.5,28.5,29.65,South,187,8.0,8.0,14,0.00,,,0.00,Wunderground v.1.15,2013-06-19 17:00:00,
2013-06-19 10:06:00,82.4,30.1,29.66,West,259,5.0,8.0,15,0.00,,,0.00,Wunderground v.1.15,2013-06-19 17:06:00,
2013-06-19 10:12:00,82.6,28.6,29.66,West,275,4.0,4.0,14,0.00,,,0.00,Wunderground v.1.15,2013-06-19 17:12:00,
2013-06-19 10:18:00,83.8,27.7,29.66,West,275,2.0,4.0,13,0.00,,,0.00,Wunderground v.1.15,2013-06-19 17:18:00,
2013-06-19 10:24:00,83.2,27.2,29.66,West,260,1.0,2.0,13,0.00,,,0.00,Wunderground v.1.15,2013-06-19 17:24:00,
2013-06-19 10:30:00,83.9,27.8,29.66,WNW,284,2.0,2.0,13,0.00,,,0.00,Wunderground v.1.15,2013-06-19 17:30:00,
2013-06-19 10:36:00,85.0,26.7,29.66,NNW,346,3.0,7.0,12,0.00,,,0.00,Wunderground v.1.15,2013-06-19 17:36:00,
2013-06-19 10:42:00,84.9,32.1,29.66,North,5,4.0,4.0,15,0.00,,,0.00,Wunderground v.1.15,2013-06-19 17:42:00,
2013-06-19 10:48:00,84.8,30.3,29.66,East,96,4.0,7.0,14,0.00,,,0.00,Wunderground v.1.15,2013-06-19 17:48:00,
2013-06-19 10:54:00,84.4,30.0,29.66,SSE,157,4.0,5.0,14,0.00,,,0.00,Wunderground v.1.15,2013-06-19 17:54:00,
2013-06-19 11:00:00,84.0,27.8,29.66,NNE,28,2.0,2.0,13,0.00,,,0.00,Wunderground v.1.15,2013-06-19 18:00:00,
2013-06-19 11:06:00,85.2,28.8,29.66,NE,44,2.0,9.0,13,0.00,,,0.00,Wunderground v.1.15,2013-06-19 18:06:00,
2013-06-19 11:12:00,85.1,26.8,29.66,NNE,26,4.0,5.0,12,0.00,,,0.00,Wunderground v.1.15,2013-06-19 18:12:00,
2013-06-19 11:18:00,86.9,28.2,29.66,North,350,4.0,5.0,12,0.00,,,0.00,Wunderground v.1.15,2013-06-19 18:18:00,
2013-06-19 11:24:00,86.5,25.7,29.66,NNE,18,4.0,9.0,11,0.00,,,0.00,Wunderground v.1.15,2013-06-19 18:24:00,
2013-06-19 11:30:00,85.3,26.9,29.66,East,101,2.0,2.0,12,0.00,,,0.00,Wunderground v.1.15,2013-06-19 18:30:00,
2013-06-19 11:36:00,86.5,25.7,29.66,East,83,0.0,2.0,11,0.00,,,0.00,Wunderground v.1.15,2013-06-19 18:36:00,
2013-06-19 11:42:00,85.9,27.4,29.66,ESE,107,1.0,1.0,12,0.00,,,0.00,Wunderground v.1.15,2013-06-19 18:42:00,
2013-06-19 11:48:00,86.3,27.7,29.66,SSE,161,1.0,4.0,12,0.00,,,0.00,Wunderground v.1.15,2013-06-19 18:48:00,
2013-06-19 11:54:00,86.6,27.9,29.66,South,191,2.0,2.0,12,0.00,,,0.00,Wunderground v.1.15,2013-06-19 18:54:00,
2013-06-19 12:00:00,88.7,29.6,29.66,NW,320,2.0,6.0,12,0.00,,,0.00,Wunderground v.1.15,2013-06-19 19:00:00,
2013-06-19 12:06:00,88.6,27.3,29.66,NW,309,3.0,6.0,11,0.00,,,0.00,Wunderground v.1.15,2013-06-19 19:06:00,
2013-06-19 12:12:00,88.1,29.1,29.66,NNW,334,2.0,6.0,12,0.00,,,0.00,Wunderground v.1.15,2013-06-19 19:12:00,
2013-06-19 12:18:00,89.0,29.8,29.66,NNE,17,4.0,9.0,12,0.00,,,0.00,Wunderground v.1.15,2013-06-19 19:18:00,
2013-06-19 12:24:00,89.4,30.1,29.65,NNW,330,5.0,6.0,12,0.00,,,0.00,Wunderground v.1.15,2013-06-19 19:24:00,
2013-06-19 12:30:00,90.0,30.6,29.65,NNW,341,4.0,8.0,12,0.00,,,0.00,Wunderground v.1.15,2013-06-19 19:30:00,
2013-06-19 12:36:00,90.0,28.4,29.65,North,360,4.0,8.0,11,0.00,,,0.00,Wunderground v.1.15,2013-06-19 19:36:00,
2013-06-19 12:42:00,90.2,30.7,29.65,NNW,340,3.0,4.0,12,0.00,,,0.00,Wunderground v.1.15,2013-06-19 19:42:00,
2013-06-19 12:48:00,90.0,28.4,29.65,SSW,198,3.0,7.0,11,0.00,,,0.00,Wunderground v.1.15,2013-06-19 19:48:00,
2013-06-19 12:54:00,89.9,28.3,29.65,SW,227,5.0,5.0,11,0.00,,,0.00,Wunderground v.1.15,2013-06-19 19:54:00,
2013-06-19 13:00:00,89.2,27.8,29.65,WSW,254,4.0,4.0,11,0.00,,,0.00,Wunderground v.1.15,2013-06-19 20:00:00,
2013-06-19 13:06:00,89.3,30.0,29.65,WSW,251,3.0,5.0,12,0.00,,,0.00,Wunderground v.1.15,2013-06-19 20:06:00,
2013-06-19 13:12:00,90.4,28.7,29.65,South,180,2.0,3.0,11,0.00,,,0.00,Wunderground v.1.15,2013-06-19 20:12:00,
2013-06-19 13:18:00,90.4,28.7,29.64,ESE,109,2.0,4.0,11,0.00,,,0.00,Wunderground v.1.15,2013-06-19 20:18:00,
2013-06-19 13:24:00,90.4,28.7,29.64,SSE,161,5.0,8.0,11,0.00,,,0.00,Wunderground v.1.15,2013-06-19 20:24:00,
2013-06-19 13:30:00,90.8,29.0,29.64,East,87,8.0,10.0,11,0.00,,,0.00,Wunderground v.1.15,2013-06-19 20:30:00,
2013-06-19 13:36:00,91.8,29.8,29.64,East,89,9.0,11.0,11,0.00,,,0.00,Wunderground v.1.15,2013-06-19 20:36:00,
2013-06-19 13:42:00,92.2,30.1,29.64,East,84,6.0,7.0,11,0.00,,,0.00,Wunderground v.1.15,2013-06-19 20:42:00,
2013-06-19 13:48:00,92.7,28.2,29.63,WNW,292,2.0,7.0,10,0.00,,,0.00,Wunderground v.1.15,2013-06-19 20:48:00,
2013-06-19 13:54:00,93.7,28.9,29.63,NW,323,3.0,7.0,10,0.00,,,0.00,Wunderground v.1.15,2013-06-19 20:54:00,
2013-06-19 14:00:00,92.4,27.9,29.63,West,277,4.0,4.0,10,0.00,,,0.00,Wunderground v.1.15,2013-06-19 21:00:00,
2013-06-19 14:06:00,92.9,30.6,29.63,East,82,4.0,5.0,11,0.00,,,0.00,Wunderground v.1.15,2013-06-19 21:06:00,
2013-06-19 14:12:00,92.7,30.5,29.62,East,86,5.0,16.0,11,0.00,,,0.00,Wunderground v.1.15,2013-06-19 21:12:00,
2013-06-19 14:18:00,93.1,30.8,29.62,NNE,21,7.0,16.0,11,0.00,,,0.00,Wunderground v.1.15,2013-06-19 21:18:00,
2013-06-19 14:24:00,94.3,31.7,29.62,WSW,238,7.0,9.0,11,0.00,,,0.00,Wunderground v.1.15,2013-06-19 21:24:00,
2013-06-19 14:30:00,93.2,30.9,29.62,WSW,240,8.0,8.0,11,0.00,,,0.00,Wunderground v.1.15,2013-06-19 21:30:00,
2013-06-19 14:36:00,94.0,31.5,29.62,SW,227,7.0,10.0,11,0.00,,,0.00,Wunderground v.1.15,2013-06-19 21:36:00,
2013-06-19 14:42:00,94.3,31.7,29.62,West,281,5.0,7.0,11,0.00,,,0.00,Wunderground v.1.15,2013-06-19 21:42:00,
2013-06-19 14:48:00,94.3,29.4,29.62,SW,221,4.0,7.0,10,0.00,,,0.00,Wunderground v.1.15,2013-06-19 21:48:00,
2013-06-19 14:54:00,93.5,31.1,29.62,WSW,241,2.0,5.0,11,0.00,,,0.00,Wunderground v.1.15,2013-06-19 21:54:00,
2013-06-19 15:00:00,93.7,31.3,29.61,SSW,210,4.0,9.0,11,0.00,,,0.00,Wunderground v.1.15,2013-06-19 22:00:00,
2013-06-19 15:06:00,93.7,31.3,29.61,SSE,161,6.0,10.0,11,0.00,,,0.00,Wunderground v.1.15,2013-06-19 22:06:00,
2013-06-19 15:12:00,93.9,33.6,29.61,West,275,5.0,6.0,12,0.00,,,0.00,Wunderground v.1.15,2013-06-19 22:12:00,
2013-06-19 15:18:00,93.9,31.4,29.61,South,173,4.0,12.0,11,0.00,,,0.00,Wunderground v.1.15,2013-06-19 22:18:00,
2013-06-19 15:24:00,94.0,31.5,29.60,SSW,213,6.0,10.0,11,0.00,,,0.00,Wunderground v.1.15,2013-06-19 22:24:00,
2013-06-19 15:30:00,94.9,32.2,29.60,South,186,6.0,16.0,11,0.00,,,0.00,Wunderground v.1.15,2013-06-19 22:30:00,
2013-06-19 15:36:00,94.6,34.1,29.60,SSE,159,10.0,16.0,12,0.00,,,0.00,Wunderground v.1.15,2013-06-19 22:36:00,
2013-06-19 15:42:00,94.1,33.7,29.60,SSE,160,10.0,12.0,12,0.00,,,0.00,Wunderground v.1.15,2013-06-19 22:42:00,
2013-06-19 15:48:00,94.1,33.7,29.59,SE,134,8.0,12.0,12,0.00,,,0.00,Wunderground v.1.15,2013-06-19 22:48:00,
2013-06-19 15:54:00,94.9,32.2,29.59,SW,225,9.0,17.0,11,0.00,,,0.00,Wunderground v.1.15,2013-06-19 22:54:00,
2013-06-19 16:00:00,94.9,36.4,29.59,WSW,253,12.0,12.0,13,0.00,,,0.00,Wunderground v.1.15,2013-06-19 23:00:00,
2013-06-19 16:06:00,94.3,37.8,29.59,WSW,244,12.0,19.0,14,0.00,,,0.00,Wunderground v.1.15,2013-06-19 23:06:00,
2013-06-19 16:12:00,95.1,36.5,29.59,WSW,247,13.0,15.0,13,0.00,,,0.00,Wunderground v.1.15,2013-06-19 23:12:00,
2013-06-19 16:18:00,94.5,36.1,29.59,SW,230,14.0,18.0,13,0.00,,,0.00,Wunderground v.1.15,2013-06-19 23:18:00,
2013-06-19 16:24:00,93.3,35.1,29.59,SW,219,14.0,20.0,13,0.00,,,0.00,Wunderground v.1.15,2013-06-19 23:24:00,
2013-06-19 16:30:00,94.2,33.8,29.58,WSW,254,13.0,13.0,12,0.00,,,0.00,Wunderground v.1.15,2013-06-19 23:30:00,
2013-06-19 16:36:00,94.4,34.0,29.58,West,262,11.0,13.0,12,0.00,,,0.00,Wunderground v.1.15,2013-06-19 23:36:00,
2013-06-19 16:42:00,93.6,35.4,29.58,WSW,246,11.0,12.0,13,0.00,,,0.00,Wunderground v.1.15,2013-06-19 23:42:00,
2013-06-19 16:48:00,94.0,33.7,29.58,West,271,10.0,12.0,12,0.00,,,0.00,Wunderground v.1.15,2013-06-19 23:48:00,
2013-06-19 16:54:00,94.0,33.7,29.58,SW,229,9.0,13.0,12,0.00,,,0.00,Wunderground v.1.15,2013-06-19 23:54:00,
2013-06-19 17:00:00,93.9,33.6,29.58,SW,230,10.0,13.0,12,0.00,,,0.00,Wunderground v.1.15,2013-06-20 00:00:00,
2013-06-19 17:06:00,93.4,33.2,29.58,West,267,10.0,13.0,12,0.00,,,0.00,Wunderground v.1.15,2013-06-20 00:06:00,
2013-06-19 17:12:00,93.0,32.9,29.58,SSW,204,10.0,15.0,12,0.00,,,0.00,Wunderground v.1.15,2013-06-20 00:12:00,
2013-06-19 17:18:00,92.3,32.3,29.58,SW,227,12.0,15.0,12,0.00,,,0.00,Wunderground v.1.15,2013-06-20 00:18:00,
2013-06-19 17:24:00,91.8,33.9,29.58,West,265,12.0,16.0,13,0.00,,,0.00,Wunderground v.1.15,2013-06-20 00:24:00,
2013-06-19 17:30:00,91.7,35.7,29.58,WSW,237,11.0,11.0,14,0.00,,,0.00,Wunderground v.1.15,2013-06-20 00:30:00,
2013-06-19 17:36:00,91.2,35.3,29.57,West,261,11.0,13.0,14,0.00,,,0.00,Wunderground v.1.15,2013-06-20 00:36:00,
2013-06-19 17:42:00,91.2,37.1,29.57,West,261,12.0,12.0,15,0.00,,,0.00,Wunderground v.1.15,2013-06-20 00:42:00,
2013-06-19 17:48:00,90.3,36.4,29.57,SW,217,13.0,15.0,15,0.00,,,0.00,Wunderground v.1.15,2013-06-20 00:48:00,
2013-06-19 17:54:00,89.3,35.6,29.57,SW,218,15.0,17.0,15,0.00,,,0.00,Wunderground v.1.15,2013-06-20 00:54:00,
2013-06-19 18:00:00,89.0,35.3,29.57,WSW,247,16.0,18.0,15,0.00,,,0.00,Wunderground v.1.15,2013-06-20 01:00:00,
2013-06-19 18:06:00,88.9,36.9,29.57,WSW,252,15.0,21.0,16,0.00,,,0.00,Wunderground v.1.15,2013-06-20 01:06:00,
2013-06-19 18:12:00,88.3,36.4,29.57,SW,236,18.0,24.0,16,0.00,,,0.00,Wunderground v.1.15,2013-06-20 01:12:00,
2013-06-19 18:18:00,87.9,36.1,29.57,SW,226,20.0,26.0,16,0.00,,,0.00,Wunderground v.1.15,2013-06-20 01:18:00,
2013-06-19 18:24:00,87.3,35.6,29.56,SW,235,22.0,26.0,16,0.00,,,0.00,Wunderground v.1.15,2013-06-20 01:24:00,
2013-06-19 18:30:00,86.7,35.1,29.57,SW,227,23.0,23.0,16,0.00,,,0.00,Wunderground v.1.15,2013-06-20 01:30:00,
2013-06-19 18:36:00,86.3,36.3,29.57,SW,226,23.0,27.0,17,0.00,,,0.00,Wunderground v.1.15,2013-06-20 01:36:00,
2013-06-19 18:42:00,85.9,36.0,29.57,SW,229,22.0,22.0,17,0.00,,,0.00,Wunderground v.1.15,2013-06-20 01:42:00,
2013-06-19 18:48:00,85.7,35.9,29.57,SW,223,20.0,22.0,17,0.00,,,0.00,Wunderground v.1.15,2013-06-20 01:48:00,
2013-06-19 18:54:00,85.3,35.5,29.57,SW,229,20.0,26.0,17,0.00,,,0.00,Wunderground v.1.15,2013-06-20 01:54:00,
2013-06-19 19:00:00,84.5,36.3,29.57,SW,232,22.0,22.0,18,0.00,,,0.00,Wunderground v.1.15,2013-06-20 02:00:00,
2013-06-19 19:06:00,83.8,35.8,29.57,WSW,238,22.0,28.0,18,0.00,,,0.00,Wunderground v.1.15,2013-06-20 02:06:00,
2013-06-19 19:12:00,82.9,36.4,29.58,SW,235,21.0,21.0,19,0.00,,,0.00,Wunderground v.1.15,2013-06-20 02:12:00,
2013-06-19 19:18:00,82.1,35.7,29.58,West,264,19.0,21.0,19,0.00,,,0.00,Wunderground v.1.15,2013-06-20 02:18:00,
2013-06-19 19:24:00,81.5,35.2,29.58,SW,223,18.0,23.0,19,0.00,,,0.00,Wunderground v.1.15,2013-06-20 02:24:00,
2013-06-19 19:30:00,81.1,36.2,29.59,WSW,238,21.0,26.0,20,0.00,,,0.00,Wunderground v.1.15,2013-06-20 02:30:00,
2013-06-19 19:36:00,80.3,35.6,29.59,SW,225,25.0,33.0,20,0.00,,,0.00,Wunderground v.1.15,2013-06-20 02:36:00,
2013-06-19 19:42:00,79.7,36.3,29.58,SW,219,28.0,28.0,21,0.00,,,0.00,Wunderground v.1.15,2013-06-20 02:42:00,
2013-06-19 19:48:00,79.3,36.0,29.58,WSW,248,24.0,30.0,21,0.00,,,0.00,Wunderground v.1.15,2013-06-20 02:48:00,
2013-06-19 19:54:00,78.8,35.5,29.58,SW,230,23.0,29.0,21,0.00,,,0.00,Wunderground v.1.15,2013-06-20 02:54:00,
2013-06-19 20:00:00,78.6,35.4,29.58,SW,236,22.0,25.0,21,0.00,,,0.00,Wunderground v.1.15,2013-06-20 03:00:00,
2013-06-19 20:06:00,78.2,35.0,29.58,SW,223,20.0,25.0,21,0.00,,,0.00,Wunderground v.1.15,2013-06-20 03:06:00,
2013-06-19 20:12:00,77.7,35.8,29.59,SW,223,21.0,21.0,22,0.00,,,0.00,Wunderground v.1.15,2013-06-20 03:12:00,
2013-06-19 20:18:00,77.4,35.6,29.59,SSW,205,20.0,22.0,22,0.00,,,0.00,Wunderground v.1.15,2013-06-20 03:18:00,
2013-06-19 20:24:00,77.0,35.2,29.58,SW,235,19.0,20.0,22,0.00,,,0.00,Wunderground v.1.15,2013-06-20 03:24:00,
2013-06-19 20:30:00,76.8,35.1,29.58,WSW,240,21.0,23.0,22,0.00,,,0.00,Wunderground v.1.15,2013-06-20 03:30:00,
2013-06-19 20:36:00,76.8,35.1,29.58,SSW,209,23.0,23.0,22,0.00,,,0.00,Wunderground v.1.15,2013-06-20 03:36:00,
2013-06-19 20:42:00,76.9,32.8,29.58,SW,225,24.0,28.0,20,0.00,,,0.00,Wunderground v.1.15,2013-06-20 03:42:00,
2013-06-19 20:48:00,76.9,34.0,29.58,SW,225,24.0,32.0,21,0.00,,,0.00,Wunderground v.1.15,2013-06-20 03:48:00,
2013-06-19 20:54:00,76.6,33.7,29.58,SW,225,22.0,24.0,21,0.00,,,0.00,Wunderground v.1.15,2013-06-20 03:54:00,
2013-06-19 21:00:00,76.4,32.3,29.59,SW,225,20.0,20.0,20,0.00,,,0.00,Wunderground v.1.15,2013-06-20 04:00:00,
2013-06-19 21:02:00,76.3,32.3,29.59,South,188,20.0,20.0,20,0.00,,,0.00,Wunderground v.1.15,2013-06-20 04:02:00,
2013-06-19 21:04:00,76.2,33.4,29.59,SW,235,21.0,26.0,21,0.00,,,0.00,Wunderground v.1.15,2013-06-20 04:04:00,
2013-06-19 21:06:00,76.1,34.5,29.59,SW,225,21.0,26.0,22,0.00,,,0.00,Wunderground v.1.15,2013-06-20 04:06:00,
2013-06-19 21:08:00,76.0,33.2,29.59,SSW,200,21.0,26.0,21,0.00,,,0.00,Wunderground v.1.15,2013-06-20 04:08:00,
2013-06-19 21:10:00,75.9,31.9,29.59,South,180,18.0,26.0,20,0.00,,,0.00,Wunderground v.1.15,2013-06-20 04:10:00,
2013-06-19 21:16:00,76.4,33.6,29.60,SSW,202,19.0,28.0,21,0.00,,,0.00,Wunderground v.1.15,2013-06-20 04:16:00,
2013-06-19 21:22:00,76.0,32.0,29.60,SW,219,19.0,21.0,20,0.00,,,0.00,Wunderground v.1.15,2013-06-20 04:22:00,
2013-06-19 21:28:00,75.7,33.0,29.60,SSW,202,16.0,21.0,21,0.00,,,0.00,Wunderground v.1.15,2013-06-20 04:28:00,
2013-06-19 21:34:00,75.6,32.9,29.61,SW,214,15.0,21.0,21,0.00,,,0.00,Wunderground v.1.15,2013-06-20 04:34:00,
2013-06-19 21:40:00,75.5,31.6,29.61,South,184,17.0,20.0,20,0.00,,,0.00,Wunderground v.1.15,2013-06-20 04:40:00,
2013-06-19 21:46:00,75.6,31.7,29.61,SSW,193,20.0,21.0,20,0.00,,,0.00,Wunderground v.1.15,2013-06-20 04:46:00,
2013-06-19 21:52:00,75.5,32.8,29.61,SSW,201,19.0,21.0,21,0.00,,,0.00,Wunderground v.1.15,2013-06-20 04:52:00,
2013-06-19 21:58:00,75.3,32.6,29.60,South,175,19.0,26.0,21,0.00,,,0.00,Wunderground v.1.15,2013-06-20 04:58:00,
2013-06-19 22:04:00,75.0,34.7,29.62,SSW,205,22.0,23.0,23,0.00,,,0.00,Wunderground v.1.15,2013-06-20 05:04:00,
2013-06-19 22:10:00,74.3,35.2,29.61,SSW,212,22.0,22.0,24,0.00,,,0.00,Wunderground v.1.15,2013-06-20 05:10:00,
2013-06-19 22:16:00,73.8,35.8,29.61,SW,227,20.0,22.0,25,0.00,,,0.00,Wunderground v.1.15,2013-06-20 05:16:00,
2013-06-19 22:22:00,73.2,36.2,29.60,SW,218,22.0,28.0,26,0.00,,,0.00,Wunderground v.1.15,2013-06-20 05:22:00,
2013-06-19 22:28:00,73.1,35.2,29.60,SW,233,24.0,32.0,25,0.00,,,0.00,Wunderground v.1.15,2013-06-20 05:28:00,
2013-06-19 22:34:00,72.9,36.0,29.60,West,269,24.0,30.0,26,0.00,,,0.00,Wunderground v.1.15,2013-06-20 05:34:00,
2013-06-19 22:40:00,72.5,35.6,29.60,WSW,238,22.0,24.0,26,0.00,,,0.00,Wunderground v.1.15,2013-06-20 05:40:00,
2013-06-19 22:46:00,72.1,36.3,29.61,SSW,192,19.0,26.0,27,0.00,,,0.00,Wunderground v.1.15,2013-06-20 05:46:00,
2013-06-19 22:52:00,71.8,34.1,29.60,SSW,199,20.0,22.0,25,0.00,,,0.00,Wunderground v.1.15,2013-06-20 05:52:00,
2013-06-19 22:58:00,72.1,34.3,29.60,South,189,24.0,27.0,25,0.00,,,0.00,Wunderground v.1.15,2013-06-20 05:58:00,
2013-06-19 23:04:00,71.8,34.1,29.60,South,180,23.0,30.0,25,0.00,,,0.00,Wunderground v.1.15,2013-06-20 06:04:00,
2013-06-19 23:10:00,71.5,34.8,29.60,SSW,200,22.0,22.0,26,0.00,,,0.00,Wunderground v.1.15,2013-06-20 06:10:00,
2013-06-19 23:16:00,71.7,34.0,29.59,SW,227,24.0,32.0,25,0.00,,,0.00,Wunderground v.1.15,2013-06-20 06:16:00,
2013-06-19 23:22:00,71.9,34.1,29.59,SW,236,27.0,33.0,25,0.00,,,0.00,Wunderground v.1.15,2013-06-20 06:22:00,
2013-06-19 23:28:00,72.0,34.2,29.59,SW,225,27.0,33.0,25,0.00,,,0.00,Wunderground v.1.15,2013-06-20 06:28:00,
2013-06-19 23:34:00,71.7,34.0,29.60,SW,223,25.0,29.0,25,0.00,,,0.00,Wunderground v.1.15,2013-06-20 06:34:00,
2013-06-19 23:40:00,71.5,33.8,29.61,South,188,20.0,20.0,25,0.00,,,0.00,Wunderground v.1.15,2013-06-20 06:40:00,
2013-06-19 23:46:00,71.4,33.7,29.61,South,186,18.0,26.0,25,0.00,,,0.00,Wunderground v.1.15,2013-06-20 06:46:00,
2013-06-19 23:52:00,71.6,33.9,29.61,SSW,194,21.0,21.0,25,0.00,,,0.00,Wunderground v.1.15,2013-06-20 06:52:00,
2013-06-19 23:58:00,71.6,32.9,29.60,SSW,195,25.0,34.0,24,0.00,,,0.00,Wunderground v.1.15,2013-06-20 06:58:00,